owner,sensor,date,latitude,longitude,vertical_datum,wind_speed,wind_to_direction,wind_speed_of_gust,qcFlag 
DISL,ioos:station:DISL:MHPA:1,2013-02-01T00:00:00Z,30.6671,-87.9365,8.5,6.04,204.2,-9999.0,'1111122,1111122,1111122' 
DISL,ioos:station:DISL:MHPA:1,2013-02-01T00:30:00Z,30.6671,-87.9365,8.5,6.59,221.2,-9999.0,'1111122,1111122,1111122' 
DISL,ioos:station:DISL:MHPA:1,2013-02-01T01:00:00Z,30.6671,-87.9365,8.5,5.79,225.1,-9999.0,'1111122,1111122,1111122' 
DISL,ioos:station:DISL:MHPA:1,2013-02-01T01:30:00Z,30.6671,-87.9365,8.5,5.6,238.1,-9999.0,'1111122,1111122,1111122' 
DISL,ioos:station:DISL:MHPA:1,2013-02-01T02:00:00Z,30.6671,-87.9365,8.5,4.82,246.9,-9999.0,'1111122,1111122,1111122' 
DISL,ioos:station:DISL:MHPA:1,2013-02-01T02:30:00Z,30.6671,-87.9365,8.5,4.99,251.2,-9999.0,'1111122,1111122,1111122' 
DISL,ioos:station:DISL:MHPA:1,2013-02-01T03:00:00Z,30.6671,-87.9365,8.5,4.57,246.0,-9999.0,'1111122,1111122,1111122' 
DISL,ioos:station:DISL:MHPA:1,2013-02-01T03:30:00Z,30.6671,-87.9365,8.5,4.91,247.6,-9999.0,'1111122,1111122,1111122' 
DISL,ioos:station:DISL:MHPA:1,2013-02-01T04:00:00Z,30.6671,-87.9365,8.5,5.46,249.9,-9999.0,'1111122,1111122,1111122' 
DISL,ioos:station:DISL:MHPA:1,2013-02-01T04:30:00Z,30.6671,-87.9365,8.5,4.84,258.4,-9999.0,'1111122,1111122,1111122' 
DISL,ioos:station:DISL:MHPA:1,2013-02-01T05:00:00Z,30.6671,-87.9365,8.5,4.41,258.6,-9999.0,'1111122,1111122,1111122' 
DISL,ioos:station:DISL:MHPA:1,2013-02-01T05:30:00Z,30.6671,-87.9365,8.5,4.14,252.8,-9999.0,'1111122,1111122,1111122' 
DISL,ioos:station:DISL:MHPA:1,2013-02-01T06:00:00Z,30.6671,-87.9365,8.5,3.86,273.0,-9999.0,'1111122,1111122,1111122' 
DISL,ioos:station:DISL:MHPA:1,2013-02-01T06:30:00Z,30.6671,-87.9365,8.5,3.37,272.0,-9999.0,'1111122,1111122,1111122' 
DISL,ioos:station:DISL:MHPA:1,2013-02-01T07:00:00Z,30.6671,-87.9365,8.5,2.5,277.2,-9999.0,'1111122,1111122,1111122' 
DISL,ioos:station:DISL:MHPA:1,2013-02-01T07:30:00Z,30.6671,-87.9365,8.5,3.6,274.8,-9999.0,'1111122,1111122,1111122' 
DISL,ioos:station:DISL:MHPA:1,2013-02-01T08:00:00Z,30.6671,-87.9365,8.5,4.03,285.1,-9999.0,'1111122,1111122,1111122' 
DISL,ioos:station:DISL:MHPA:1,2013-02-01T08:30:00Z,30.6671,-87.9365,8.5,2.88,275.5,-9999.0,'1111122,1111122,1111122' 
DISL,ioos:station:DISL:MHPA:1,2013-02-01T09:00:00Z,30.6671,-87.9365,8.5,2.25,273.7,-9999.0,'1111122,1111122,1111122' 
DISL,ioos:station:DISL:MHPA:1,2013-02-01T09:30:00Z,30.6671,-87.9365,8.5,1.01,279.5,-9999.0,'1111122,1111122,1111122' 
DISL,ioos:station:DISL:MHPA:1,2013-02-01T10:00:00Z,30.6671,-87.9365,8.5,1.14,302.6,-9999.0,'1111122,1111122,1111122' 
DISL,ioos:station:DISL:MHPA:1,2013-02-01T10:30:00Z,30.6671,-87.9365,8.5,0.54,17.14,-9999.0,'1111122,1111122,1111122' 
DISL,ioos:station:DISL:MHPA:1,2013-02-01T11:00:00Z,30.6671,-87.9365,8.5,1.31,348.2,-9999.0,'1111122,1111122,1111122' 
DISL,ioos:station:DISL:MHPA:1,2013-02-01T11:30:00Z,30.6671,-87.9365,8.5,1.24,310.3,-9999.0,'1111122,1111122,1111122' 
DISL,ioos:station:DISL:MHPA:1,2013-02-01T12:00:00Z,30.6671,-87.9365,8.5,1.21,331.2,-9999.0,'1111122,1111122,1111122' 
DISL,ioos:station:DISL:MHPA:1,2013-02-01T12:30:00Z,30.6671,-87.9365,8.5,1.72,357.3,-9999.0,'1111122,1111122,1111122' 
DISL,ioos:station:DISL:MHPA:1,2013-02-01T13:00:00Z,30.6671,-87.9365,8.5,1.33,355.4,-9999.0,'1111122,1111122,1111122' 
DISL,ioos:station:DISL:MHPA:1,2013-02-01T13:30:00Z,30.6671,-87.9365,8.5,2.09,330.7,-9999.0,'1111122,1111122,1111122' 
DISL,ioos:station:DISL:MHPA:1,2013-02-01T14:00:00Z,30.6671,-87.9365,8.5,0.8,326.2,-9999.0,'1111122,1111122,1111122' 
DISL,ioos:station:DISL:MHPA:1,2013-02-01T14:30:00Z,30.6671,-87.9365,8.5,2.26,336.3,-9999.0,'1111122,1111122,1111122' 
DISL,ioos:station:DISL:MHPA:1,2013-02-01T15:00:00Z,30.6671,-87.9365,8.5,2.88,357.4,-9999.0,'1111122,1111122,1111122' 
DISL,ioos:station:DISL:MHPA:1,2013-02-01T15:30:00Z,30.6671,-87.9365,8.5,2.22,355.6,-9999.0,'1111122,1111122,1111122' 
DISL,ioos:station:DISL:MHPA:1,2013-02-01T16:00:00Z,30.6671,-87.9365,8.5,3.71,0.876,-9999.0,'1111122,1111122,1111122' 
DISL,ioos:station:DISL:MHPA:1,2013-02-01T16:30:00Z,30.6671,-87.9365,8.5,4.19,355.4,-9999.0,'1111122,1111122,1111122' 
DISL,ioos:station:DISL:MHPA:1,2013-02-01T17:00:00Z,30.6671,-87.9365,8.5,4.02,356.8,-9999.0,'1111122,1111122,1111122' 
DISL,ioos:station:DISL:MHPA:1,2013-02-01T17:30:00Z,30.6671,-87.9365,8.5,4.71,352.0,-9999.0,'1111122,1111122,1111122' 
DISL,ioos:station:DISL:MHPA:1,2013-02-01T18:00:00Z,30.6671,-87.9365,8.5,4.81,350.5,-9999.0,'1111122,1111122,1111122' 
DISL,ioos:station:DISL:MHPA:1,2013-02-01T18:30:00Z,30.6671,-87.9365,8.5,4.37,349.6,-9999.0,'1111122,1111122,1111122' 
DISL,ioos:station:DISL:MHPA:1,2013-02-01T19:00:00Z,30.6671,-87.9365,8.5,4.82,347.0,-9999.0,'1111122,1111122,1111122' 
DISL,ioos:station:DISL:MHPA:1,2013-02-01T19:30:00Z,30.6671,-87.9365,8.5,4.29,350.3,-9999.0,'1111122,1111122,1111122' 
DISL,ioos:station:DISL:MHPA:1,2013-02-01T20:00:00Z,30.6671,-87.9365,8.5,3.39,352.2,-9999.0,'1111122,1111122,1111122' 
DISL,ioos:station:DISL:MHPA:1,2013-02-01T20:30:00Z,30.6671,-87.9365,8.5,3.41,5.418,-9999.0,'1111122,1111122,1111122' 
DISL,ioos:station:DISL:MHPA:1,2013-02-01T21:00:00Z,30.6671,-87.9365,8.5,4.58,358.0,-9999.0,'1111122,1111122,1111122' 
DISL,ioos:station:DISL:MHPA:1,2013-02-01T21:30:00Z,30.6671,-87.9365,8.5,3.97,355.7,-9999.0,'1111122,1111122,1111122' 
DISL,ioos:station:DISL:MHPA:1,2013-02-01T22:00:00Z,30.6671,-87.9365,8.5,3.52,3.785,-9999.0,'1111122,1111122,1111122' 
DISL,ioos:station:DISL:MHPA:1,2013-02-01T22:30:00Z,30.6671,-87.9365,8.5,3.62,6.976,-9999.0,'1111122,1111122,1111122' 
DISL,ioos:station:DISL:MHPA:1,2013-02-01T23:00:00Z,30.6671,-87.9365,8.5,2.97,358.5,-9999.0,'1111122,1111122,1111122' 
DISL,ioos:station:DISL:MHPA:1,2013-02-01T23:30:00Z,30.6671,-87.9365,8.5,1.57,18.15,-9999.0,'1111122,1111122,1111122' 
DISL,ioos:station:DISL:MHPA:1,2013-02-02T00:00:00Z,30.6671,-87.9365,8.5,1.32,26.08,-9999.0,'1111122,1111122,1111122' 
DISL,ioos:station:DISL:MHPA:1,2013-02-02T00:30:00Z,30.6671,-87.9365,8.5,1.69,29.56,-9999.0,'1111122,1111122,1111122' 
DISL,ioos:station:DISL:MHPA:1,2013-02-02T01:00:00Z,30.6671,-87.9365,8.5,1.69,35.19,-9999.0,'1111122,1111122,1111122' 
DISL,ioos:station:DISL:MHPA:1,2013-02-02T01:30:00Z,30.6671,-87.9365,8.5,1.43,19.51,-9999.0,'1111122,1111122,1111122' 
DISL,ioos:station:DISL:MHPA:1,2013-02-02T02:00:00Z,30.6671,-87.9365,8.5,1.71,28.09,-9999.0,'1111122,1111122,1111122' 
DISL,ioos:station:DISL:MHPA:1,2013-02-02T02:30:00Z,30.6671,-87.9365,8.5,1.31,29.56,-9999.0,'1111122,1111122,1111122' 
DISL,ioos:station:DISL:MHPA:1,2013-02-02T03:00:00Z,30.6671,-87.9365,8.5,1.6,26.65,-9999.0,'1111122,1111122,1111122' 
DISL,ioos:station:DISL:MHPA:1,2013-02-02T03:30:00Z,30.6671,-87.9365,8.5,1.68,33.52,-9999.0,'1111122,1111122,1111122' 
DISL,ioos:station:DISL:MHPA:1,2013-02-02T04:00:00Z,30.6671,-87.9365,8.5,1.65,32.57,-9999.0,'1111122,1111122,1111122' 
DISL,ioos:station:DISL:MHPA:1,2013-02-02T04:30:00Z,30.6671,-87.9365,8.5,1.82,29.62,-9999.0,'1111122,1111122,1111122' 
DISL,ioos:station:DISL:MHPA:1,2013-02-02T05:00:00Z,30.6671,-87.9365,8.5,1.69,15.32,-9999.0,'1111122,1111122,1111122' 
DISL,ioos:station:DISL:MHPA:1,2013-02-02T05:30:00Z,30.6671,-87.9365,8.5,1.31,17.08,-9999.0,'1111122,1111122,1111122' 
DISL,ioos:station:DISL:MHPA:1,2013-02-02T06:00:00Z,30.6671,-87.9365,8.5,1.77,13.24,-9999.0,'1111122,1111122,1111122' 
DISL,ioos:station:DISL:MHPA:1,2013-02-02T06:30:00Z,30.6671,-87.9365,8.5,1.34,15.04,-9999.0,'1111122,1111122,1111122' 
DISL,ioos:station:DISL:MHPA:1,2013-02-02T07:00:00Z,30.6671,-87.9365,8.5,2.09,10.87,-9999.0,'1111122,1111122,1111122' 
DISL,ioos:station:DISL:MHPA:1,2013-02-02T07:30:00Z,30.6671,-87.9365,8.5,2.06,53.41,-9999.0,'1111122,1111122,1111122' 
DISL,ioos:station:DISL:MHPA:1,2013-02-02T08:00:00Z,30.6671,-87.9365,8.5,1.94,46.43,-9999.0,'1111122,1111122,1111122' 
DISL,ioos:station:DISL:MHPA:1,2013-02-02T08:30:00Z,30.6671,-87.9365,8.5,2.42,16.26,-9999.0,'1111122,1111122,1111122' 
DISL,ioos:station:DISL:MHPA:1,2013-02-02T09:00:00Z,30.6671,-87.9365,8.5,0.92,27.52,-9999.0,'1111122,1111122,1111122' 
DISL,ioos:station:DISL:MHPA:1,2013-02-02T09:30:00Z,30.6671,-87.9365,8.5,1.92,1.72,-9999.0,'1111122,1111122,1111122' 
DISL,ioos:station:DISL:MHPA:1,2013-02-02T10:00:00Z,30.6671,-87.9365,8.5,1.26,33.89,-9999.0,'1111122,1111122,1111122' 
DISL,ioos:station:DISL:MHPA:1,2013-02-02T10:30:00Z,30.6671,-87.9365,8.5,1.15,23.13,-9999.0,'1111122,1111122,1111122' 
DISL,ioos:station:DISL:MHPA:1,2013-02-02T11:00:00Z,30.6671,-87.9365,8.5,2.0,49.85,-9999.0,'1111122,1111122,1111122' 
DISL,ioos:station:DISL:MHPA:1,2013-02-02T11:30:00Z,30.6671,-87.9365,8.5,2.34,40.48,-9999.0,'1111122,1111122,1111122' 
DISL,ioos:station:DISL:MHPA:1,2013-02-02T12:00:00Z,30.6671,-87.9365,8.5,1.84,56.49,-9999.0,'1111122,1111122,1111122' 
DISL,ioos:station:DISL:MHPA:1,2013-02-02T12:30:00Z,30.6671,-87.9365,8.5,1.5,53.43,-9999.0,'1111122,1111122,1111122' 
DISL,ioos:station:DISL:MHPA:1,2013-02-02T13:00:00Z,30.6671,-87.9365,8.5,2.2,83.1,-9999.0,'1111122,1111122,1111122' 
DISL,ioos:station:DISL:MHPA:1,2013-02-02T13:30:00Z,30.6671,-87.9365,8.5,1.96,98.3,-9999.0,'1111122,1111122,1111122' 
DISL,ioos:station:DISL:MHPA:1,2013-02-02T14:00:00Z,30.6671,-87.9365,8.5,2.92,105.4,-9999.0,'1111122,1111122,1111122' 
DISL,ioos:station:DISL:MHPA:1,2013-02-02T14:30:00Z,30.6671,-87.9365,8.5,2.95,109.2,-9999.0,'1111122,1111122,1111122' 
DISL,ioos:station:DISL:MHPA:1,2013-02-02T15:00:00Z,30.6671,-87.9365,8.5,3.08,112.0,-9999.0,'1111122,1111122,1111122' 
DISL,ioos:station:DISL:MHPA:1,2013-02-02T15:30:00Z,30.6671,-87.9365,8.5,2.44,103.4,-9999.0,'1111122,1111122,1111122' 
DISL,ioos:station:DISL:MHPA:1,2013-02-02T16:00:00Z,30.6671,-87.9365,8.5,2.53,138.7,-9999.0,'1111122,1111122,1111122' 
DISL,ioos:station:DISL:MHPA:1,2013-02-02T16:30:00Z,30.6671,-87.9365,8.5,2.75,209.5,-9999.0,'1111122,1111122,1111122' 
DISL,ioos:station:DISL:MHPA:1,2013-02-02T17:00:00Z,30.6671,-87.9365,8.5,2.66,226.9,-9999.0,'1111122,1111122,1111122' 
DISL,ioos:station:DISL:MHPA:1,2013-02-02T17:30:00Z,30.6671,-87.9365,8.5,2.57,218.3,-9999.0,'1111122,1111122,1111122' 
DISL,ioos:station:DISL:MHPA:1,2013-02-02T18:00:00Z,30.6671,-87.9365,8.5,3.55,230.0,-9999.0,'1111122,1111122,1111122' 
DISL,ioos:station:DISL:MHPA:1,2013-02-02T18:30:00Z,30.6671,-87.9365,8.5,3.2,228.2,-9999.0,'1111122,1111122,1111122' 
DISL,ioos:station:DISL:MHPA:1,2013-02-02T19:00:00Z,30.6671,-87.9365,8.5,3.18,239.0,-9999.0,'1111122,1111122,1111122' 
DISL,ioos:station:DISL:MHPA:1,2013-02-02T19:30:00Z,30.6671,-87.9365,8.5,3.1,222.2,-9999.0,'1111122,1111122,1111122' 
DISL,ioos:station:DISL:MHPA:1,2013-02-02T20:00:00Z,30.6671,-87.9365,8.5,4.64,209.6,-9999.0,'1111122,1111122,1111122' 
DISL,ioos:station:DISL:MHPA:1,2013-02-02T20:30:00Z,30.6671,-87.9365,8.5,4.71,192.1,-9999.0,'1111122,1111122,1111122' 
DISL,ioos:station:DISL:MHPA:1,2013-02-02T21:00:00Z,30.6671,-87.9365,8.5,3.75,191.5,-9999.0,'1111122,1111122,1111122' 
DISL,ioos:station:DISL:MHPA:1,2013-02-02T21:30:00Z,30.6671,-87.9365,8.5,5.3,200.5,-9999.0,'1111122,1111122,1111122' 
DISL,ioos:station:DISL:MHPA:1,2013-02-02T22:00:00Z,30.6671,-87.9365,8.5,5.74,195.8,-9999.0,'1111122,1111122,1111122' 
DISL,ioos:station:DISL:MHPA:1,2013-02-02T22:30:00Z,30.6671,-87.9365,8.5,5.99,198.8,-9999.0,'1111122,1111122,1111122' 
DISL,ioos:station:DISL:MHPA:1,2013-02-02T23:00:00Z,30.6671,-87.9365,8.5,5.12,191.8,-9999.0,'1111122,1111122,1111122' 
DISL,ioos:station:DISL:MHPA:1,2013-02-02T23:30:00Z,30.6671,-87.9365,8.5,4.2,194.2,-9999.0,'1111122,1111122,1111122' 
DISL,ioos:station:DISL:MHPA:1,2013-02-03T00:00:00Z,30.6671,-87.9365,8.5,4.46,197.7,-9999.0,'1111122,1111122,1111122' 
DISL,ioos:station:DISL:MHPA:1,2013-02-03T00:30:00Z,30.6671,-87.9365,8.5,3.26,211.2,-9999.0,'1111122,1111122,1111122' 
DISL,ioos:station:DISL:MHPA:1,2013-02-03T01:00:00Z,30.6671,-87.9365,8.5,2.88,211.7,-9999.0,'1111122,1111122,1111122' 
DISL,ioos:station:DISL:MHPA:1,2013-02-03T01:30:00Z,30.6671,-87.9365,8.5,1.8,160.4,-9999.0,'1111122,1111122,1111122' 
DISL,ioos:station:DISL:MHPA:1,2013-02-03T02:00:00Z,30.6671,-87.9365,8.5,2.09,131.1,-9999.0,'1111122,1111122,1111122' 
DISL,ioos:station:DISL:MHPA:1,2013-02-03T02:30:00Z,30.6671,-87.9365,8.5,2.46,164.0,-9999.0,'1111122,1111122,1111122' 
DISL,ioos:station:DISL:MHPA:1,2013-02-03T03:00:00Z,30.6671,-87.9365,8.5,2.26,171.7,-9999.0,'1111122,1111122,1111122' 
DISL,ioos:station:DISL:MHPA:1,2013-02-03T03:30:00Z,30.6671,-87.9365,8.5,3.21,175.6,-9999.0,'1111122,1111122,1111122' 
DISL,ioos:station:DISL:MHPA:1,2013-02-03T04:00:00Z,30.6671,-87.9365,8.5,2.59,173.2,-9999.0,'1111122,1111122,1111122' 
DISL,ioos:station:DISL:MHPA:1,2013-02-03T04:30:00Z,30.6671,-87.9365,8.5,2.03,169.3,-9999.0,'1111122,1111122,1111122' 
DISL,ioos:station:DISL:MHPA:1,2013-02-03T05:00:00Z,30.6671,-87.9365,8.5,1.49,173.1,-9999.0,'1111122,1111122,1111122' 
DISL,ioos:station:DISL:MHPA:1,2013-02-03T05:30:00Z,30.6671,-87.9365,8.5,1.87,196.1,-9999.0,'1111122,1111122,1111122' 
DISL,ioos:station:DISL:MHPA:1,2013-02-03T06:00:00Z,30.6671,-87.9365,8.5,1.65,226.9,-9999.0,'1111122,1111122,1111122' 
DISL,ioos:station:DISL:MHPA:1,2013-02-03T06:30:00Z,30.6671,-87.9365,8.5,1.2,284.1,-9999.0,'1111122,1111122,1111122' 
DISL,ioos:station:DISL:MHPA:1,2013-02-03T07:00:00Z,30.6671,-87.9365,8.5,3.21,352.2,-9999.0,'1111122,1111122,1111122' 
DISL,ioos:station:DISL:MHPA:1,2013-02-03T07:30:00Z,30.6671,-87.9365,8.5,2.48,0.788,-9999.0,'1111122,1111122,1111122' 
DISL,ioos:station:DISL:MHPA:1,2013-02-03T08:00:00Z,30.6671,-87.9365,8.5,1.85,10.99,-9999.0,'1111122,1111122,1111122' 
DISL,ioos:station:DISL:MHPA:1,2013-02-03T08:30:00Z,30.6671,-87.9365,8.5,2.32,355.0,-9999.0,'1111122,1111122,1111122' 
DISL,ioos:station:DISL:MHPA:1,2013-02-03T09:00:00Z,30.6671,-87.9365,8.5,1.42,348.4,-9999.0,'1111122,1111122,1111122' 
DISL,ioos:station:DISL:MHPA:1,2013-02-03T09:30:00Z,30.6671,-87.9365,8.5,0.99,355.4,-9999.0,'1111122,1111122,1111122' 
DISL,ioos:station:DISL:MHPA:1,2013-02-03T10:00:00Z,30.6671,-87.9365,8.5,1.27,9.62,-9999.0,'1111122,1111122,1111122' 
DISL,ioos:station:DISL:MHPA:1,2013-02-03T10:30:00Z,30.6671,-87.9365,8.5,1.66,359.4,-9999.0,'1111122,1111122,1111122' 
DISL,ioos:station:DISL:MHPA:1,2013-02-03T11:00:00Z,30.6671,-87.9365,8.5,1.75,0.48,-9999.0,'1111122,1111122,1111122' 
DISL,ioos:station:DISL:MHPA:1,2013-02-03T11:30:00Z,30.6671,-87.9365,8.5,1.5,16.4,-9999.0,'1111122,1111122,1111122' 
DISL,ioos:station:DISL:MHPA:1,2013-02-03T12:00:00Z,30.6671,-87.9365,8.5,1.83,12.73,-9999.0,'1111122,1111122,1111122' 
DISL,ioos:station:DISL:MHPA:1,2013-02-03T12:30:00Z,30.6671,-87.9365,8.5,1.26,359.8,-9999.0,'1111122,1111122,1111122' 
DISL,ioos:station:DISL:MHPA:1,2013-02-03T13:00:00Z,30.6671,-87.9365,8.5,0.77,18.25,-9999.0,'1111122,1111122,1111122' 
DISL,ioos:station:DISL:MHPA:1,2013-02-03T13:30:00Z,30.6671,-87.9365,8.5,0.53,357.3,-9999.0,'1111122,1111122,1111122' 
DISL,ioos:station:DISL:MHPA:1,2013-02-03T14:00:00Z,30.6671,-87.9365,8.5,1.82,354.1,-9999.0,'1111122,1111122,1111122' 
DISL,ioos:station:DISL:MHPA:1,2013-02-03T14:30:00Z,30.6671,-87.9365,8.5,1.36,10.3,-9999.0,'1111122,1111122,1111122' 
DISL,ioos:station:DISL:MHPA:1,2013-02-03T15:00:00Z,30.6671,-87.9365,8.5,1.16,305.1,-9999.0,'1111122,1111122,1111122' 
DISL,ioos:station:DISL:MHPA:1,2013-02-03T15:30:00Z,30.6671,-87.9365,8.5,0.8,317.3,-9999.0,'1111122,1111122,1111122' 
DISL,ioos:station:DISL:MHPA:1,2013-02-03T16:00:00Z,30.6671,-87.9365,8.5,2.26,237.0,-9999.0,'1111122,1111122,1111122' 
DISL,ioos:station:DISL:MHPA:1,2013-02-03T16:30:00Z,30.6671,-87.9365,8.5,2.23,246.2,-9999.0,'1111122,1111122,1111122' 
DISL,ioos:station:DISL:MHPA:1,2013-02-03T17:00:00Z,30.6671,-87.9365,8.5,2.43,227.2,-9999.0,'1111122,1111122,1111122' 
DISL,ioos:station:DISL:MHPA:1,2013-02-03T17:30:00Z,30.6671,-87.9365,8.5,2.77,200.9,-9999.0,'1111122,1111122,1111122' 
DISL,ioos:station:DISL:MHPA:1,2013-02-03T18:00:00Z,30.6671,-87.9365,8.5,3.24,184.3,-9999.0,'1111122,1111122,1111122' 
DISL,ioos:station:DISL:MHPA:1,2013-02-03T18:30:00Z,30.6671,-87.9365,8.5,2.72,180.7,-9999.0,'1111122,1111122,1111122' 
DISL,ioos:station:DISL:MHPA:1,2013-02-03T19:00:00Z,30.6671,-87.9365,8.5,1.95,184.8,-9999.0,'1111122,1111122,1111122' 
DISL,ioos:station:DISL:MHPA:1,2013-02-03T19:30:00Z,30.6671,-87.9365,8.5,2.64,192.0,-9999.0,'1111122,1111122,1111122' 
DISL,ioos:station:DISL:MHPA:1,2013-02-03T20:00:00Z,30.6671,-87.9365,8.5,3.21,194.8,-9999.0,'1111122,1111122,1111122' 
DISL,ioos:station:DISL:MHPA:1,2013-02-03T20:30:00Z,30.6671,-87.9365,8.5,4.55,196.5,-9999.0,'1111122,1111122,1111122' 
DISL,ioos:station:DISL:MHPA:1,2013-02-03T21:00:00Z,30.6671,-87.9365,8.5,4.24,183.2,-9999.0,'1111122,1111122,1111122' 
DISL,ioos:station:DISL:MHPA:1,2013-02-03T21:30:00Z,30.6671,-87.9365,8.5,4.9,171.5,-9999.0,'1111122,1111122,1111122' 
DISL,ioos:station:DISL:MHPA:1,2013-02-03T22:00:00Z,30.6671,-87.9365,8.5,5.45,174.8,-9999.0,'1111122,1111122,1111122' 
DISL,ioos:station:DISL:MHPA:1,2013-02-03T22:30:00Z,30.6671,-87.9365,8.5,5.33,169.5,-9999.0,'1111122,1111122,1111122' 
DISL,ioos:station:DISL:MHPA:1,2013-02-03T23:00:00Z,30.6671,-87.9365,8.5,4.5,167.6,-9999.0,'1111122,1111122,1111122' 
DISL,ioos:station:DISL:MHPA:1,2013-02-03T23:30:00Z,30.6671,-87.9365,8.5,3.93,163.4,-9999.0,'1111122,1111122,1111122' 
DISL,ioos:station:DISL:MHPA:1,2013-02-04T00:00:00Z,30.6671,-87.9365,8.5,2.54,135.9,-9999.0,'1111122,1111122,1111122' 
DISL,ioos:station:DISL:MHPA:1,2013-02-04T00:30:00Z,30.6671,-87.9365,8.5,2.51,217.5,-9999.0,'1111122,1111122,1111122' 
DISL,ioos:station:DISL:MHPA:1,2013-02-04T01:00:00Z,30.6671,-87.9365,8.5,2.41,216.2,-9999.0,'1111122,1111122,1111122' 
DISL,ioos:station:DISL:MHPA:1,2013-02-04T01:30:00Z,30.6671,-87.9365,8.5,3.23,240.5,-9999.0,'1111122,1111122,1111122' 
DISL,ioos:station:DISL:MHPA:1,2013-02-04T02:00:00Z,30.6671,-87.9365,8.5,4.59,251.5,-9999.0,'1111122,1111122,1111122' 
DISL,ioos:station:DISL:MHPA:1,2013-02-04T02:30:00Z,30.6671,-87.9365,8.5,3.47,244.4,-9999.0,'1111122,1111122,1111122' 
DISL,ioos:station:DISL:MHPA:1,2013-02-04T03:00:00Z,30.6671,-87.9365,8.5,2.26,270.3,-9999.0,'1111122,1111122,1111122' 
DISL,ioos:station:DISL:MHPA:1,2013-02-04T03:30:00Z,30.6671,-87.9365,8.5,0.54,141.8,-9999.0,'1111122,1111122,1111122' 
DISL,ioos:station:DISL:MHPA:1,2013-02-04T04:00:00Z,30.6671,-87.9365,8.5,1.65,227.1,-9999.0,'1111122,1111122,1111122' 
DISL,ioos:station:DISL:MHPA:1,2013-02-04T04:30:00Z,30.6671,-87.9365,8.5,1.35,359.2,-9999.0,'1111122,1111122,1111122' 
DISL,ioos:station:DISL:MHPA:1,2013-02-04T05:00:00Z,30.6671,-87.9365,8.5,1.5,17.47,-9999.0,'1111122,1111122,1111122' 
DISL,ioos:station:DISL:MHPA:1,2013-02-04T05:30:00Z,30.6671,-87.9365,8.5,2.11,13.55,-9999.0,'1111122,1111122,1111122' 
DISL,ioos:station:DISL:MHPA:1,2013-02-04T06:00:00Z,30.6671,-87.9365,8.5,1.97,0.534,-9999.0,'1111122,1111122,1111122' 
DISL,ioos:station:DISL:MHPA:1,2013-02-04T06:30:00Z,30.6671,-87.9365,8.5,1.85,10.39,-9999.0,'1111122,1111122,1111122' 
DISL,ioos:station:DISL:MHPA:1,2013-02-04T07:00:00Z,30.6671,-87.9365,8.5,1.82,1.656,-9999.0,'1111122,1111122,1111122' 
DISL,ioos:station:DISL:MHPA:1,2013-02-04T07:30:00Z,30.6671,-87.9365,8.5,1.42,14.07,-9999.0,'1111122,1111122,1111122' 
DISL,ioos:station:DISL:MHPA:1,2013-02-04T08:00:00Z,30.6671,-87.9365,8.5,0.97,33.63,-9999.0,'1111122,1111122,1111122' 
DISL,ioos:station:DISL:MHPA:1,2013-02-04T08:30:00Z,30.6671,-87.9365,8.5,1.45,8.66,-9999.0,'1111122,1111122,1111122' 
DISL,ioos:station:DISL:MHPA:1,2013-02-04T09:00:00Z,30.6671,-87.9365,8.5,0.4,12.04,-9999.0,'1111122,1111122,1111122' 
DISL,ioos:station:DISL:MHPA:1,2013-02-04T09:30:00Z,30.6671,-87.9365,8.5,0.32,29.49,-9999.0,'1111122,1111122,1111122' 
DISL,ioos:station:DISL:MHPA:1,2013-02-04T10:00:00Z,30.6671,-87.9365,8.5,1.36,346.0,-9999.0,'1111122,1111122,1111122' 
DISL,ioos:station:DISL:MHPA:1,2013-02-04T10:30:00Z,30.6671,-87.9365,8.5,2.37,2.623,-9999.0,'1111122,1111122,1111122' 
DISL,ioos:station:DISL:MHPA:1,2013-02-04T11:00:00Z,30.6671,-87.9365,8.5,1.08,17.84,-9999.0,'1111122,1111122,1111122' 
DISL,ioos:station:DISL:MHPA:1,2013-02-04T11:30:00Z,30.6671,-87.9365,8.5,1.43,7.19,-9999.0,'1111122,1111122,1111122' 
DISL,ioos:station:DISL:MHPA:1,2013-02-04T12:00:00Z,30.6671,-87.9365,8.5,1.43,52.21,-9999.0,'1111122,1111122,1111122' 
DISL,ioos:station:DISL:MHPA:1,2013-02-04T12:30:00Z,30.6671,-87.9365,8.5,0.95,11.96,-9999.0,'1111122,1111122,1111122' 
DISL,ioos:station:DISL:MHPA:1,2013-02-04T13:00:00Z,30.6671,-87.9365,8.5,1.04,27.13,-9999.0,'1111122,1111122,1111122' 
DISL,ioos:station:DISL:MHPA:1,2013-02-04T13:30:00Z,30.6671,-87.9365,8.5,1.52,40.43,-9999.0,'1111122,1111122,1111122' 
DISL,ioos:station:DISL:MHPA:1,2013-02-04T14:00:00Z,30.6671,-87.9365,8.5,1.24,34.94,-9999.0,'1111122,1111122,1111122' 
DISL,ioos:station:DISL:MHPA:1,2013-02-04T14:30:00Z,30.6671,-87.9365,8.5,2.12,88.3,-9999.0,'1111122,1111122,1111122' 
DISL,ioos:station:DISL:MHPA:1,2013-02-04T15:00:00Z,30.6671,-87.9365,8.5,1.01,29.15,-9999.0,'1111122,1111122,1111122' 
DISL,ioos:station:DISL:MHPA:1,2013-02-04T15:30:00Z,30.6671,-87.9365,8.5,1.31,49.69,-9999.0,'1111122,1111122,1111122' 
DISL,ioos:station:DISL:MHPA:1,2013-02-04T16:00:00Z,30.6671,-87.9365,8.5,0.45,40.02,-9999.0,'1111122,1111122,1111122' 
DISL,ioos:station:DISL:MHPA:1,2013-02-04T16:30:00Z,30.6671,-87.9365,8.5,1.83,157.7,-9999.0,'1111122,1111122,1111122' 
DISL,ioos:station:DISL:MHPA:1,2013-02-04T17:00:00Z,30.6671,-87.9365,8.5,1.71,272.7,-9999.0,'1111122,1111122,1111122' 
DISL,ioos:station:DISL:MHPA:1,2013-02-04T17:30:00Z,30.6671,-87.9365,8.5,1.45,252.3,-9999.0,'1111122,1111122,1111122' 
DISL,ioos:station:DISL:MHPA:1,2013-02-04T18:00:00Z,30.6671,-87.9365,8.5,1.3,239.5,-9999.0,'1111122,1111122,1111122' 
DISL,ioos:station:DISL:MHPA:1,2013-02-04T18:30:00Z,30.6671,-87.9365,8.5,0.38,217.5,-9999.0,'1111122,1111122,1111122' 
DISL,ioos:station:DISL:MHPA:1,2013-02-04T19:00:00Z,30.6671,-87.9365,8.5,1.18,254.8,-9999.0,'1111122,1111122,1111122' 
DISL,ioos:station:DISL:MHPA:1,2013-02-04T19:30:00Z,30.6671,-87.9365,8.5,1.11,257.8,-9999.0,'1111122,1111122,1111122' 
DISL,ioos:station:DISL:MHPA:1,2013-02-04T20:00:00Z,30.6671,-87.9365,8.5,0.05,245.9,-9999.0,'1111122,1111122,1111122' 
DISL,ioos:station:DISL:MHPA:1,2013-02-04T20:30:00Z,30.6671,-87.9365,8.5,0.29,245.9,-9999.0,'1111122,1111122,1111122' 
DISL,ioos:station:DISL:MHPA:1,2013-02-04T21:00:00Z,30.6671,-87.9365,8.5,0.11,175.9,-9999.0,'1111122,1111122,1111122' 
DISL,ioos:station:DISL:MHPA:1,2013-02-04T21:30:00Z,30.6671,-87.9365,8.5,0.18,226.6,-9999.0,'1111122,1111122,1111122' 
DISL,ioos:station:DISL:MHPA:1,2013-02-04T22:00:00Z,30.6671,-87.9365,8.5,0.43,187.2,-9999.0,'1111122,1111122,1111122' 
DISL,ioos:station:DISL:MHPA:1,2013-02-04T22:30:00Z,30.6671,-87.9365,8.5,0.67,161.7,-9999.0,'1111122,1111122,1111122' 
DISL,ioos:station:DISL:MHPA:1,2013-02-04T23:00:00Z,30.6671,-87.9365,8.5,0.1,43.11,-9999.0,'1111122,1111122,1111122' 
DISL,ioos:station:DISL:MHPA:1,2013-02-04T23:30:00Z,30.6671,-87.9365,8.5,0.4,108.4,-9999.0,'1111122,1111122,1111122' 
DISL,ioos:station:DISL:MHPA:1,2013-02-05T00:00:00Z,30.6671,-87.9365,8.5,0.83,170.0,-9999.0,'1111122,1111122,1111122' 
DISL,ioos:station:DISL:MHPA:1,2013-02-05T00:30:00Z,30.6671,-87.9365,8.5,0.85,91.1,-9999.0,'1111122,1111122,1111122' 
DISL,ioos:station:DISL:MHPA:1,2013-02-05T01:00:00Z,30.6671,-87.9365,8.5,3.31,141.0,-9999.0,'1111122,1111122,1111122' 
DISL,ioos:station:DISL:MHPA:1,2013-02-05T01:30:00Z,30.6671,-87.9365,8.5,3.2,138.0,-9999.0,'1111122,1111122,1111122' 
DISL,ioos:station:DISL:MHPA:1,2013-02-05T02:00:00Z,30.6671,-87.9365,8.5,3.43,124.3,-9999.0,'1111122,1111122,1111122' 
DISL,ioos:station:DISL:MHPA:1,2013-02-05T02:30:00Z,30.6671,-87.9365,8.5,3.35,120.7,-9999.0,'1111122,1111122,1111122' 
DISL,ioos:station:DISL:MHPA:1,2013-02-05T03:00:00Z,30.6671,-87.9365,8.5,2.75,107.0,-9999.0,'1111122,1111122,1111122' 
DISL,ioos:station:DISL:MHPA:1,2013-02-05T03:30:00Z,30.6671,-87.9365,8.5,3.15,116.0,-9999.0,'1111122,1111122,1111122' 
DISL,ioos:station:DISL:MHPA:1,2013-02-05T04:00:00Z,30.6671,-87.9365,8.5,2.58,105.4,-9999.0,'1111122,1111122,1111122' 
DISL,ioos:station:DISL:MHPA:1,2013-02-05T04:30:00Z,30.6671,-87.9365,8.5,2.54,115.7,-9999.0,'1111122,1111122,1111122' 